This demonstration page uses our WeatherBlox Daily Observations layout. Learn more.

Left ArrowRight Arrow

47.50024, -111.30081

Hourly Observations for January 23, 2016

Temp ( °F °C ) Dew Point ( °F °C ) Humidity (%) Winds ( mph kmh ) Pressure ( in mb ) Visibility ( mi km ) Precip ( " mm )
12:53 am 00:53 Clear 40 4.4 26 -3.3 58 58 SW 23 37 29.85 1011 10 16 0.00 0.00
1:53 am 01:53 Clear 38 3.3 26 -3.3 62 62 SW 15 24 29.85 1011 10 16 0.00 0.00
2:53 am 02:53 Clear 40 4.4 25 -3.9 55 55 SSW 17 28 29.87 1011 10 16 0.00 0.00
3:53 am 03:53 Clear 37 2.8 24 -4.4 59 59 S 13 20 29.88 1012 10 16 0.00 0.00
4:53 am 04:53 Clear 38 3.3 24 -4.4 57 57 SW 14 22 29.88 1012 10 16 0.00 0.00
5:53 am 05:53 Clear 35 1.7 24 -4.4 64 64 S 8 13 29.91 1013 10 16 0.00 0.00
6:53 am 06:53 Clear 33 0.6 24 -4.4 70 70 SW 9 15 29.91 1013 10 16 0.00 0.00
7:53 am 07:53 Clear 34 1.1 25 -3.9 70 70 S 10 17 29.91 1013 10 16 0.00 0.00
8:53 am 08:53 Sunny 36 2.2 26 -3.3 67 67 S 13 20 29.90 1013 10 16 0.00 0.00
9:53 am 09:53 Sunny 39 3.9 26 -3.3 60 60 SSW 14 22 29.87 1011 10 16 0.00 0.00
10:53 am 10:53 Sunny 44 6.7 27 -2.8 51 51 SW 12 19 29.85 1011 10 16 0.00 0.00
11:53 am 11:53 Sunny 45 7.2 27 -2.8 49 49 SW 10 17 29.84 1010 10 16 0.00 0.00
12:53 pm 12:53 Sunny 47 8.3 27 -2.8 46 46 SW 7 11 29.79 1009 10 16 0.00 0.00
1:53 pm 13:53 Sunny 47 8.3 27 -2.8 46 46 SW 7 11 29.77 1008 10 16 0.00 0.00
2:53 pm 14:53 Mostly Cloudy 48 8.9 26 -3.3 42 42 Calm 29.74 1007 10 16 0.00 0.00
3:53 pm 15:53 Mostly Cloudy 41 5 31 -0.6 67 67 ENE 7 11 29.77 1008 10 16 0.00 0.00
4:53 pm 16:53 Cloudy 39 3.9 30 -1.1 70 70 Calm 29.77 1008 10 16 0.00 0.00
5:53 pm 17:53 Mostly Cloudy 36 2.2 28 -2.2 73 73 NE 5 7 29.79 1009 10 16 0.00 0.00
6:53 pm 18:53 Cloudy with Light Rain 34 1.1 30 -1.1 85 85 W 9 15 29.83 1010 9 14 0.00 0.03
7:03 pm 19:03 Cloudy with Rain 34 1 30 -1 87 87 W 9 15 29.83 1010 5 8 0.00 0.00
7:40 pm 19:40 Cloudy with Light Rain 34 1 34 1 100 100 SSW 6 9 29.83 1010 10 16 0.00 0.00
7:53 pm 19:53 Cloudy 34 1.1 33 0.6 97 97 S 5 7 29.82 1010 10 16 0.09 2.29
8:53 pm 20:53 Cloudy 34 1.1 33 0.6 97 97 SE 5 7 29.80 1009 10 16 0.00 0.00
9:53 pm 21:53 Cloudy 34 1.1 33 0.6 97 97 ESE 5 7 29.79 1009 10 16 0.00 0.00
10:53 pm 22:53 Mostly Cloudy 36 2.2 32 0 86 86 S 7 11 29.77 1008 10 16 0.00 0.00
11:53 pm 23:53 Partly Cloudy 36 2.2 32 0 86 86 SSW 13 20 29.75 1008 10 16 0.00 0.00

Powered by AerisWeather